Station TPLM2 - Thomas Point, MD Image indicating link to RSS feed of recent meteorological observations for station TPLM2


Conditions at TPLM2 as of
(8:00 pm EDT on 04/15/2024)
0000 GMT on 04/16/2024:
     

Click on the graph icon in the table below to see a time series plot of the last five days of that observation.

5-day plot - Wind Direction Wind Direction (WDIR): S ( 170 deg true )
5-day plot - Wind Speed Wind Speed (WSPD): 11 kts
5-day plot - Wind Gust Wind Gust (GST): 11 kts
5-day plot - Atmospheric Pressure Atmospheric Pressure (PRES):29.86 in
5-day plot - Pressure Tendency Pressure Tendency (PTDY):+0.03 in ( Rising )
5-day plot - Air Temperature Air Temperature (ATMP): 63.0 °F
5-day plot - Wind Speed at 10 Meters Wind Speed at 10 meters (WSPD10M): 10 kts
5-day plot - Wind Speed at 20 Meters Wind Speed at 20 meters (WSPD20M): 12 kts
5-day plot -  Wind Speed, Wind Gust and Atmospheric Pressure Combined plot of Wind Speed, Gust, and Air Pressure
Continuous Winds
TIME
(EDT)
5-day plot - Wind Direction WDIR 5-day plot - Wind Speed WSPD
8:00 pmS ( 174 deg ) 9 kts
7:50 pmSSE ( 152 deg ) 12 kts
7:40 pmSE ( 146 deg ) 14 kts
7:30 pmSE ( 146 deg ) 14 kts
7:20 pmSE ( 145 deg ) 11 kts
7:10 pmSSE ( 167 deg ) 11 kts
 
Peak gust during the measurement hour
TIME
(EDT)
5-day plot - Gust Direction GDR 5-day plot - Gust Speed GST
7:25 pmSSE ( 150 deg ) 16 kts
Previous observations
TIME
(EDT)
5-day plot - Wind Direction
WDIR
 
5-day plot - Wind Speed
WSPD
kts
5-day plot - Wind Gust
GST
kts
5-day plot - Wave Height
WVHT
ft
5-day plot - Dominant Wave Period
DPD
sec
5-day plot - Average Wave Period
APD
sec
5-day plot - Mean Wave Direction
MWD
 
5-day plot - Atmospheric Pressure
PRES
in
5-day plot - Pressure Tendency
PTDY
in
5-day plot - Air Temperature
ATMP
°F
5-day plot - Water Temperature
WTMP
°F
5-day plot - Dew Point
DEWP
°F
5-day plot - Salinity
SAL
psu
5-day plot - Visibility
VIS
nmi
5-day plot - Tide (above MLLW)
TIDE
ft
2024-04-15 07:00 pm S 9 11----29.85+0.03 64.2-----
2024-04-15 06:00 pmSSE 7 8----29.84+0.00 72.0-----
2024-04-15 05:00 pmSSE 6 6----29.83-0.02 72.0-----
2024-04-15 04:00 pmESE 13 14----29.82-0.05 76.5-----
2024-04-15 03:00 pmESE 11 11----29.85-0.04 75.2-----
2024-04-15 02:00 pm SE 11 11----29.85-0.05 74.3-----
2024-04-15 01:00 pm SE 12 12----29.87-0.04 72.5-----
2024-04-15 12:00 pm SE 9 10----29.88-0.01 68.5-----
2024-04-15 11:00 am SE 10 10----29.90+0.03 64.4-----
2024-04-15 10:00 am E 2 3----29.91+0.06 63.5-----
2024-04-15 09:00 amWNW 2 3----29.90+0.09 61.0-----
2024-04-15 08:00 amSSW 8 8----29.87+0.04 60.1-----
2024-04-15 07:00 am S 9 11----29.84+0.02 59.7-----
2024-04-15 06:00 am SE 11 11----29.81+0.00 61.2-----
2024-04-15 05:00 am SE 2 2----29.83+0.01 64.2-----
2024-04-15 04:00 am E 4 5----29.82+0.02 65.3-----
2024-04-15 03:00 amNNE 11 11----29.82+0.01 66.2-----
2024-04-15 02:00 am N 12 13----29.82+0.03 62.8-----
2024-04-15 01:00 am E 10 10----29.80+0.03 67.8-----
2024-04-15 12:00 am W 1 3----29.80+0.04 70.0-----
2024-04-14 11:00 pm SE 6 7----29.79+0.09 65.5-----
2024-04-14 10:00 pmSSE 14 15----29.77+0.06 66.7-----
2024-04-14 09:00 pm S 16 17----29.76+0.03 66.7-----
2024-04-14 08:00 pmSSE 21 21----29.70-0.06 66.0-----